Find Starlink 32498

NORAD ID: 61966 Int'l Des: 2024-210 Owner: SPXS Country: US Constellation: starlink operational
LEOCIRCULAR

当前视图

正在加载3D地球...

About Starlink 32498

Starlink 32498 (NORAD 61966) is a starlink constellation satellite (v2 mini) launched Nov 14, 2024 by SPXS of US. It operates in LEO, CIRCULAR orbit with a mass of 730.00 kg.

关于 Starlink 32498

正在加载描述...

即将过境

Passes for default location (London). Set your location on the main map for personalized predictions.

高度历史

Loading altitude history...

两行轨道根数

1 61966U 24210H 26170.65335587 .00013937 00000-0 51476-3 0 9994
2 61966 43.0014 309.3084 0001871 268.6505 91.4133 15.27596925 90672
Epoch: Jun 19, 2026 • Age: 18 hours

当前状态

高度 484.7 km
速度 7.62 km/s
星下点 -11.82°S, 82.28°E
发射日期 Nov 14, 2024
运行时间 1.5 years
类型 internet

技术详情

分类 Payload
质量 730.00 kg
干质量 700.00 kg
总质量 730.00 kg
长度 0.30 m
直径 4.10 m
跨度 29.00 m
形状 Box + pan
制造商 SPXS
平台类型 Starlink V2M
阶段状态 In Orbit
所有者/国家 SPXS/US

Most Searched